Regional Weather Roundup
Issued by NWS

Home | Current Version | Previous Version | Graphics & Text | Print | Product List | Glossary On
Versions: 1 2 3 4 5 6 7 8 9 10 11 12 13 14 15 16 17 18 19 20 21 22 23 24 25 26 27 28 29 30 31 32 33 34 35 36 37 38 39 40 41 42 43 44 45 46 47 48 49 50
000
ASUS43 KLOT 271112
RWRIL

ILLINOIS REGIONAL WEATHER ROUNDUP
NATIONAL WEATHER SERVICE CHICAGO/ROMEOVILLE IL
600 AM CDT MON APR 27 2015

NOTE: "FAIR" INDICATES FEW OR NO CLOUDS BELOW 12,000 FEET WITH NO
SIGNIFICANT WEATHER AND/OR OBSTRUCTIONS TO VISIBILITY.

* THESE STATIONS ARE NOT UNDER NWS QUALITY CONTROL. THEY ALSO MAY NOT
  REPORT WEATHER SUCH AS PRECIPITATION OR FOG.

ILZ001-002-007-009-015-016-024-271200-
NORTHWEST ILLINOIS

CITY           SKY/WX    TMP DP  RH WIND       PRES   REMARKS
MOLINE         CLEAR     35  31  85 CALM      30.11R
STERLING*      CLEAR     36  28  75 N3        30.11R
SAVANNA*       CLEAR     39  30  70 NW3       30.13R
$$

ILZ003-004-008-010-011-017-018-271200-
NORTH CENTRAL ILLINOIS

CITY           SKY/WX    TMP DP  RH WIND       PRES   REMARKS
ROCKFORD       CLEAR     36  28  73 NW3       30.11R
FREEPORT*      CLEAR     34  28  79 N3        30.12R
ROCHELLE*      CLEAR     34  30  85 CALM      30.11R
DE KALB*       CLEAR     35  29  78 NW7       30.08R WCI  29
PERU*          CLEAR     36  30  79 NW5       30.11R WCI  32
$$

ILZ005-006-012>014-019>023-271200-
NORTHEAST ILLINOIS

CITY           SKY/WX    TMP DP  RH WIND       PRES   REMARKS
CHICAGO-OHARE  CLEAR     39  30  70 N7        30.04S WCI  34
CHICAGO-MIDWAY PTCLDY    44  31  60 N14       30.04S
AURORA         CLEAR     34  29  82 NW8       30.08R WCI  27
LANSING*       CLEAR     41  31  68 N12G18    30.03R
JOLIET*        CLEAR     39  32  77 CALM      30.07R
WAUKEGAN       CLEAR     38  30  73 NW7       30.05S WCI  33
DUPAGE AIRPORT CLEAR     34  29  82 N7        30.05S WCI  28
KANKAKEE*      CLEAR     37  32  84 W7        30.06R WCI  31
WHEELING       CLEAR     38  29  70 N7        30.07S WCI  33
MORRIS*        CLEAR     35  31  85 NW3       30.04R
ROMEOVILLE*    CLEAR     37  30  75 N6        30.06R WCI  33
NORTHERLY ISL    N/A     42  34  73 N14         N/A
$$

LMZ740>746-271200-
SOUTHERN LAKE MICHIGAN

STATION/POSITION SKY/WX   TEMP    WIND        PRES    VSBY  WAVE
                          AIR SEA DIR/SP/G                  HT/PER
                          (F)     (DEG/KT/KT) (MB)    (MI)  (FT/S)
HARRISON CRIB              40     350/ 19/ 23   N/A
BURNHAM HARBOR             43     360/ 16/ 18   N/A
CALUMET HARBOR             41     350/ 11/ 17   N/A
BURNS HARBOR               42      20/ 19/ 25 1015.9F
MICHIGAN CITY              41     350/ 20/ 23   N/A
MICHIGAN CITY 6N           41 45   10/ 17/ 21   N/A           4/ 5
$$

ILZ025>027-034>036-040-047-049-050-058-095>099-271200-
WEST-CENTRAL ILLINOIS

CITY           SKY/WX    TMP DP  RH WIND       PRES   REMARKS
QUINCY         CLEAR     37  32  82 N5        30.07S WCI  33
GALESBURG*     CLEAR     32  30  94 CALM      30.11R
MACOMB*        CLEAR     35  33  93 CALM      30.11R
JACKSONVILLE*  CLEAR     37  34  89 N5        30.08R WCI  34
PITTSFIELD*    CLEAR     37  34  89 CALM      30.08S
$$

ILZ028>032-037-038-041>044-048-051>054-059>061-271200-
CENTRAL ILLINOIS

CITY           SKY/WX    TMP DP  RH WIND       PRES   REMARKS
PONTIAC        CLEAR     35  32  88 NW6       30.10R WCI  30
BLOOMINGTON    CLEAR     38  31  76 N8        30.09R WCI  32
DECATUR        CLEAR     38  29  70 N9        30.07R WCI  31
PEORIA         CLEAR     38  32  79 N3        30.11R
LACON*         CLEAR     34  31  89 CALM      30.11R
LINCOLN*       CLEAR     39  32  75 NW5       30.09R
SPRINGFIELD    CLEAR     36  32  85 N5        30.09R WCI  32
TAYLORVILLE    CLEAR     34  32  93 N5        30.07R WCI  30
$$

ILZ033-039-045-046-055>057-062-063-271200-
EAST-CENTRAL ILLINOIS

CITY           SKY/WX    TMP DP  RH WIND       PRES   REMARKS
CHAMPAIGN      CLEAR     38  30  73 N9        30.05R WCI  31
DANVILLE*      CLEAR     35  31  87 NW9       30.02R WCI  28
RANTOUL*       CLEAR     39  32  76 N10       30.06R WCI  32
MATTOON        CLEAR     37  30  75 N8        30.04R WCI  31
PARIS*         CLEAR     37  32  82 N6        30.05R WCI  32
$$

ILZ079-100>102-271200-
SOUTHWEST ILLINOIS

CITY           SKY/WX    TMP DP  RH WIND       PRES   REMARKS
ALTON          PTCLDY    39  35  87 CALM      30.06R
BELLEVILLE     MOCLDY    41  35  77 N5        30.05R
CAHOKIA*       MOCLDY    40  37  89 CALM      30.06R
SPARTA*        CLOUDY    40  34  80 CALM      30.05R
$$

ILZ064>066-069>071-074>076-080>082-084>086-088>090-092>094-271200-
SOUTH-CENTRAL ILLINOIS

CITY           SKY/WX    TMP DP  RH WIND       PRES   REMARKS
CARBONDALE     CLOUDY    39  34  82 N5        30.02R
CAIRO*         MOCLDY    45  35  66 NE7       30.01R
EFFINGHAM*     CLEAR     40  27  59 NW8       30.06R
MARION         MOCLDY    41  34  75 N3        30.03R
MT. VERNON     PTCLDY    37  28  70 N5        30.03S WCI  34
CENTRALIA*     PTCLDY    38  32  79 N6        30.04R WCI  33
SALEM*         CLEAR     38  32  80 CALM      30.04R
METROPOLIS*    PTCLDY    43  37  78 N6        29.99S
$$

ILZ067-068-072-073-078-083-087-091-271200-
SOUTHEAST ILLINOIS

CITY           SKY/WX    TMP DP  RH WIND       PRES   REMARKS
LAWRENCEVILLE  CLEAR     41  31  67 N10       30.02R
FLORA*         CLEAR     37  32  80 NW3       30.04R
FAIRFIELD*     CLEAR     40  32  71 N5        30.03R
HARRISBURG*    PTCLDY    41  32  71 N5        30.03R
ROBINSON*      CLEAR     39  31  75 N7        30.03R WCI  34
CARMI*         CLEAR     38  32  78 NW5       30.02R WCI  35
$$

ABBREVIATIONS USED IN REMARKS
   TC - TEMPERATURE IN CELSIUS
  WCI - WIND CHILL INDEX
   HX - HEAT INDEX
  VSB - VISIBILITY
$$




USA.gov is the U.S. government's official web portal to all federal, state and local government web resources and services.